Skip Page Navigation
NASA JPL Caltech
NASA Logo - Jet Propulsion Laboratory + View the NASA Portal
+ Near-Earth Object (NEO) Program
Search JPL
JPL Home Earth Solar System Stars & Galaxies Technology
JPL Solar System Dynamics
BODIES ORBITS EPHEMERIDES TOOLS PHYSICAL DATA DISCOVERY FAQ SITE MAP
JPL Small-Body Database Browser
Search: [ help ]  
48047 Houghten (2001 DL86)
Classification: Main-belt Asteroid          SPK-ID: 2048047
Ephemeris | Orbit Diagram | Orbital Elements | Physical Parameters | Discovery Circumstances ]

[ hide orbit diagram ]
Orbit Diagram
Note: Make sure you have Java enabled on your browser to see the applet. This applet is provided as a 3D orbit visualization tool. The applet was implemented using 2-body methods, and hence should not be used for determining accurate long-term trajectories (over several years or decades) or planetary encounter circumstances. For accurate long-term ephemerides, please instead use our Horizons system.
Orbit Viewer

Additional Notes: the orbits shown in the applet are color coded. The planets are white lines, and the asteroid/comet is a blue line. The bright white line indicates the portion of the orbit that is above the ecliptic plane, and the darker portion is below the ecliptic plane. Likewise for the asteroid/comet orbit, the light blue indicates the portion above the ecliptic plane, and the dark blue the portion below the ecliptic plane.

Orbit Viewer applet originally written and kindly provided by Osamu Ajiki (AstroArts), and further modified by Ron Baalke (JPL).


Orbital Elements at Epoch 2456400.5 (2013-Apr-18.0) TDB
Reference: MPO162236 (heliocentric ecliptic J2000)
 Element Value Uncertainty (1-sigma)   Units 
e 0.0556117 n/a  
a 2.2920501 n/a AU
q 2.1645853 n/a AU
i 6.87782 n/a deg
node 28.01693 n/a deg
peri 179.12995 n/a deg
M 146.50606 n/a deg
tp 2455884.6924917
(2011-Nov-19.19249170)
n/a JED
period 1267.4609023
3.47
n/a
n/a
d
yr
n 0.28403243 n/a deg/d
Q 2.4195149 n/a AU
  Orbit Determination Parameters
   # obs. used (total)      231  
   first obs. used      1992-??-??  
   last obs. used      2009-09-15  
   # oppositions      8  
   planetary ephem.      DE403  
   condition code      1  
   fit RMS      0.52  
   data source      MPC:mpn  
   producer      MPCMEL  

Additional Information
 T_jup = 3.586 

Ephemeris | Orbit Diagram | Orbital Elements | Physical Parameters | Discovery Circumstances ]

Physical Parameter Table
Parameter Symbol Value Units Sigma Reference Notes
absolute magnitude H 15.7 mag n/a MPO162236  

48047 Houghten           Discovered 2001 Feb. 22 at the Tenagra II Observatory, Nogales.
Christopher Houghten (b. 1963), of Rutland, Vermont, developed a non-computer-based system to allow manually operated telescopes to be GOTO telescopes, thereby helping astronomers gather large amounts of data. His solution to the problem has been developed into a PC-based state-of-the-art control system.
NOTE: some special characters may not display properly (any characters within {} are an attempt to place the proper accent above a character)
Reference: 20090806/MPCPages.arcLast Updated: 2011-05-09

Alternate Designations
 2001 DL86 = 1999 TY179 
Ephemeris | Orbit Diagram | Orbital Elements | Physical Parameters | Discovery Circumstances ]
ABOUT SSD CREDITS/AWARDS PRIVACY/COPYRIGHT GLOSSARY LINKS
FirstGov 2013-May-23 11:00 UT
(server date/time)  
NASA Home Page
Site Manager:   Donald K. Yeomans
Webmaster  Alan B. Chamberlin